Location: Focicchia
(42.2496°N, 9.2935°E)
Time: 03:25:46
(UTC+00:00)

X-37B - Pass Details

Date: 06 August 2021
Orbit: 381 x 393 km, 45.0° (Epoch: 29 August)

Event Time Altitude Azimuth Distance (km) Brightness Sun altitude
Exits shadow 03:29:08 - 280° (W) 1,611 3.3 -9.3°
Reaches altitude 10° 03:29:41 10° 283° (WNW) 1,397 3.0 -9.2°
Maximum altitude 03:32:44 47° 359° (N) 511 1.4 -8.7°
Drops below altitude 10° 03:35:47 10° 75° (ENE) 1,398 4.8 -8.2°
Sets 03:37:54 0° 82° (E) 2,252 5.9 -7.9°
